AirNav   ATP
 
 1441 users online  

MO75 Brownsberger Airport
Montrose, Missouri, USA

GOING TO MONTROSE?


FAA INFORMATION EFFECTIVE 24 MAY 2018

Location

FAA Identifier: MO75
Lat/Long: 38-18-18.0810N / 094-03-11.7940W
38-18.301350N / 094-03.196567W
38.3050225 / -94.0532761
(estimated)
Elevation: 794 ft. / 242 m (estimated)
Variation: 05E (1985)
From city: 8 miles NW of MONTROSE, MO
Time zone: UTC -5 (UTC -6 during Standard Time)
Zip code: 64770

Airport Operations

Airport use: Private use. Permission required prior to landing
Activation date: 05/1989
Control tower: no
ARTCC: KANSAS CITY CENTER
FSS: COLUMBIA FLIGHT SERVICE STATION
Attendance: MON-SAT DUSK-DAWN
Wind indicator: yes
Segmented circle: no

Airport Communications

WX AWOS-3 at GLY (18 nm E): 120.475 (660-885-3851)

Nearby radio navigation aids

VOR radial/distance  VOR name  Freq  Var
BUMr077/20.6BUTLER VORTAC115.9007E

 
NDB name  Hdg/Dist  Freq  Var  ID
GOLDEN VALLEY258/17.638801EGLY --. .-.. -.--

Airport Services

Runway Information

Runway 18/36

Dimensions: 1300 x 50 ft. / 396 x 15 m
Surface: turf
RUNWAY 18  RUNWAY 36
Traffic pattern: leftleft

Airport Ownership and Management from official FAA records

Ownership: Privately-owned
Owner: WALTER BROWNSBERGER
15015 MELROSE
OVERLAND PARK, KS 66221
Phone 913-897-4828
Manager: WALTER BROWNSBERGER
15015 MELROSE
OVERLAND PARK, KS 66221
Phone 913-897-4828

Airport Operational Statistics

Aircraft based on the field: 1
Single engine airplanes: 1
    

Instrument Procedures

There are no published instrument procedures at MO75.

Some nearby airports with instrument procedures:

KBUM - Butler Memorial Airport (14 nm W)
KGLY - Clinton Regional Airport (18 nm E)
KLRY - Lawrence Smith Memorial Airport (23 nm NW)
KNVD - Nevada Municipal Airport (30 nm SW)
KRCM - Skyhaven Airport (31 nm N)
 
Loc | Ops | Rwys | IFR | FBO | Links
Com | Nav | Svcs | Stats | Notes

Kansas City Aviation Department
 
Area around MO75 (Brownsberger Airport)
 
Road maps at: MapQuest Bing Google
 
Aerial photo
No photo
 
Sectional chart

 
Airport distance calculator
Flying to Brownsberger Airport? Find the distance to fly.

From to MO75

Sunrise and sunset
Times for 25-May-2018
 Local
(UTC-5)
 Zulu
(UTC)
Morning civil twilight05:2810:28
Sunrise05:5910:59
Sunset20:2701:27
Evening civil twilight20:5801:58

Current date and time
Zulu (UTC)  25-May-2018 14:19:00
Local (UTC-5)  25-May-2018 09:19:00
 
METAR
KGLY 
18nm E 
251355Z AUTO 15007KT 3SM -RA FEW005 SCT043 BKN050 19/19 A2993 RMK AO2 LTG DSNT SE AND S
KLRY 
23nm NW 
251355Z AUTO 15003KT 10SM CLR 20/18 A2994 RMK AO2
KRCM 
31nm N 
251355Z AUTO 11004KT 10SM -VCTSRA SCT034 SCT042 BKN120 18/18 A2992 RMK AO2 LTG DSNT SE
KSZL 
35nm NE 
251356Z 13008KT 6SM -RA BR BKN040 BKN100 19/19 A2987 RMK AO2A PRESFR SLP112 P0013 T01930191 $
TAF
KSZL 
35nm NE 
251100Z 2511/2617 18009KT 9999 BKN030 BKN080 QNH2988INS TEMPO 2511/2513 19010G15KT 6000 -TSRA BKN020CB BECMG 2513/2514 20012KT 8000 -SHRA OVC040 QNH2984INS TEMPO 2516/2520 21020G30KT 6000 -TSRA OVC025CB BECMG 2521/2522 20009KT 9999 NSW SCT050 QNH2982INS TEMPO 2606/2608 26012G18KT 6000 -TSRA OVC025CB TX30/2520Z TN18/2511Z
NOTAMs
Click for the latest NOTAMs
NOTAMs are issued by the DoD/FAA and will open in a separate window not controlled by AirNav.

 

 
 

Would you like to see your business listed on this page?

 If your business provides an interesting product or service to pilots, flight crews, aircraft, or users of the Brownsberger Airport, you should consider listing it here.  To start the listing process, click on the button below
 
Add a business
 

Other Pages about Brownsberger Airport

Update a link
 
Copyright © AirNav, LLC. All rights reserved. Privacy Policy  Contact